Flag for Canada Weather past 2 weeks in Abbotsford, British Columbia, Canada

Now
32 °F

Ice fog.


Feels Like: 32 °F
Forecast: 34 / 50 °F
Wind: No wind

Location: Abbotsford

Current Time: Jan 31, 2015 at 6:58:11 AM

Latest Report: Jan 31, 2015 at 6:00 AM


Visibility: 1 mi

Pressure: 30.27 "Hg

Humidity: 100%

Dew point: 32 °F

Location of AbbotsfordLocation

Historic Weather in Abbotsford — Graph

°F

Abbotsford temperature yesterday

Maximum temperature yesterday: 52 °F (at 2:00 PM)
Minimum temperature yesterday: 32 °F (at 7:00 AM)
Average temperature yesterday: 40 °F

Past Weeks' High & Low Weather Summary

 TemperatureHumidityPressure
High59 °F (Jan 25, 12:00 PM)100% (Jan 16, 7:00 AM)30.48 "Hg (Jan 16, 7:00 AM)
Low30 °F (Jan 31, 3:00 AM)54% (Jan 29, 3:00 PM)29.49 "Hg (Jan 18, 2:00 AM)
Average44 °F91%30.20 "Hg
* Reported Jan 16 5:00 AM — Jan 31 5:00 AM, Abbotsford, Weather by CustomWeather, © 2014

Note: Actual official high and low records may vary slightly from our data, if they occured in-between our weather recording intervals... More about our weather records

Advertising

Abbotsford weather history for previous 24 hours

 ConditionsComfort  
Time TempWeatherWind HumidityBarometerVisibility
5:00 AM
Jan 31
32 °FIce fog.2 mph100%30.28 "Hg1 mi
4:00 AM30 °FIce fog.No wind100%30.28 "Hg1 mi
3:00 AM30 °FIce fog.No wind100%30.29 "Hg1 mi
2:00 AM32 °FIce fog.2 mph100%30.29 "Hg1 mi
1:00 AM34 °FFog.3 mph100%30.28 "Hg1 mi
12:00 AM32 °FFog.3 mph100%30.28 "Hg0 mi
11:46 PM
Jan 30
34 °FFog.2 mph100%30.28 "Hg1 mi
11:00 PM34 °FFog.No wind100%30.27 "Hg1 mi
10:00 PM36 °FFog.5 mph100%30.27 "Hg6 mi
9:00 PM37 °FClear.No wind100%30.27 "Hg15 mi
8:00 PM36 °FClear.8 mph100%30.27 "Hg15 mi
7:00 PM41 °FPassing clouds.No wind93%30.27 "Hg10 mi
6:00 PM43 °FPartly cloudy.3 mph87%30.27 "Hg15 mi
5:00 PM48 °FBroken clouds.5 mph76%30.26 "Hg30 mi
4:00 PM52 °FBroken clouds.5 mph62%30.27 "Hg30 mi
3:00 PM52 °FPartly sunny.3 mph62%30.28 "Hg30 mi
2:00 PM52 °FBroken clouds.2 mph58%30.28 "Hg30 mi
1:00 PM50 °FScattered clouds.3 mph62%30.29 "Hg30 mi
12:00 PM48 °FPassing clouds.No wind66%30.32 "Hg30 mi
11:00 AM45 °FPassing clouds.2 mph76%30.33 "Hg30 mi
10:00 AM41 °FSunny.5 mph81%30.32 "Hg30 mi
9:00 AM37 °FPassing clouds.5 mph87%30.34 "Hg30 mi
8:00 AM32 °FPassing clouds.3 mph100%30.34 "Hg30 mi
7:00 AM32 °FPassing clouds.2 mph93%30.32 "Hg20 mi
6:00 AM36 °FPassing clouds.3 mph93%30.34 "Hg15 mi
Weather by CustomWeather, © 2014

See weather overviewHow to use our weather pages